Temperature
21 22 21 21 21 21 21 21 20 20 20 21 20 20 20 19 19 18 17 17 16 16 15 15 14 14 14 14 14 14 13 13 13 13 13 13 12 12 12 12 12 12 11 12
20 21 21 21 20 20 21 21 21 20 20 21 21 20 19 19 18 18 17 16 16 16 15 15 14 14 14 14 13 13 13 13 13 12 12 12 12 12 12 12 11 11 11 11
19 20 20 19 20 20 20 20 20 20 20 20 20 19 19 18 18 17 17 16 16 15 15 14 14 14 14 13 13 13 13 12 12 12 12 12 12 11 11 11 11 11 11 11
18 18 17 19 21 21 20 20 20 20 20 19 19 19 18 18 17 17 16 16 15 15 15 14 14 14 13 13 13 12 12 12 12 12 12 11 11 11 11 11 10 10 10 10
18 17 18 19 20 20 19 19 20 19 19 19 18 18 18 17 17 16 16 15 15 15 14 14 14 13 13 12 12 12 12 12 12 11 11 11 11 11 10 10 10 10 10 10
17 17 17 18 19 19 19 17 19 19 18 18 18 16 17 17 16 15 15 14 14 14 14 14 13 13 13 12 12 12 12 12 11 11 11 11 10 10 10 10 10 10 9 9
17 17 17 18 18 19 17 17 18 18 18 17 17 16 16 15 15 15 14 14 14 13 13 13 13 13 12 12 12 12 11 11 11 11 10 10 10 10 9 9 9 9 9 9
17 16 16 18 18 17 17 18 18 18 17 17 16 15 15 14 14 14 13 13 13 13 13 12 12 12 12 12 11 11 11 11 11 10 10 10 10 9 9 9 9 9 9 9
17 16 17 17 17 17 17 17 17 17 16 16 15 15 14 14 13 13 13 12 12 12 12 12 12 11 11 11 11 11 10 10 10 10 10 9 9 9 9 9 9 8 8 8
17 17 17 17 17 17 16 16 16 16 15 15 14 14 13 13 13 12 12 12 12 11 11 11 11 11 11 11 11 10 10 10 9 9 9 9 9 9 8 8 8 8 8 8
16 17 17 17 16 16 16 16 15 15 14 14 14 13 13 13 12 12 12 12 11 11 11 11 11 11 10 10 10 10 10 9 9 9 8 8 8 8 8 8 8 8 8 7
15 16 16 16 16 16 15 15 15 14 14 13 13 13 13 12 12 12 11 11 11 11 11 11 10 10 10 10 9 9 9 9 8 8 8 8 8 8 7 7 7 7 7 7
16 16 16 15 15 15 15 14 14 14 13 13 12 12 12 12 11 11 11 11 10 10 10 10 10 10 10 9 9 9 8 8 8 8 8 7 7 7 7 7 7 7 7 7
15 15 15 14 14 14 14 14 13 13 13 12 12 12 11 11 11 11 10 10 10 10 10 10 9 9 9 9 9 8 8 8 8 7 7 7 7 7 6 6 6 6 6 6
14 14 14 14 13 13 13 13 12 12 12 12 11 11 11 11 10 10 10 10 10 10 9 9 9 9 9 8 8 8 8 7 7 7 7 7 6 6 6 6 6 6 6 6
13 13 13 13 13 12 12 12 12 11 11 11 11 11 11 10 10 10 10 9 9 9 9 9 8 8 8 8 8 8 7 7 7 7 6 6 6 6 5 5 5 5 5 5
13 13 13 12 12 12 12 11 11 11 11 10 10 10 10 10 10 9 9 9 9 9 9 8 8 8 8 7 7 7 7 7 6 6 6 6 6 5 5 5 5 5 5 5
12 12 12 12 12 11 11 11 11 10 10 10 10 10 9 9 9 9 9 9 8 8 8 8 8 7 7 7 7 7 6 6 6 6 5 5 5 5 5 5 4 4 4 4
12 12 11 11 11 11 11 10 10 10 10 9 9 9 9 9 9 9 8 8 8 8 8 7 7 7 6 6 6 6 6 6 5 5 5 5 5 5 4 4 4 4 4 3
11 11 11 11 10 10 10 10 10 9 9 9 9 9 8 8 8 8 8 7 7 7 7 7 7 6 6 6 6 5 5 5 5 5 5 4 4 4 4 4 4 4 3 3
10 10 10 10 9 9 9 9 9 9 9 8 8 8 8 8 8 7 7 7 7 7 7 6 6 6 5 5 5 5 5 5 5 4 4 4 4 4 4 3 3 3 3 3
10 9 9 9 9 9 8 8 8 8 8 8 8 7 7 7 7 7 7 6 6 6 6 6 5 5 5 5 5 5 4 4 4 4 4 4 4 3 3 3 3 3 3 3
9 9 9 8 8 8 8 7 7 7 7 7 7 7 7 6 6 6 6 6 5 5 5 5 5 5 4 4 4 4 4 4 4 4 3 3 3 3 3 2 2 2 2 2
8 8 8 8 8 7 7 7 7 7 6 6 6 6 6 6 5 5 5 5 5 5 5 4 4 4 4 4 4 3 3 3 3 3 3 3 3 2 2 2 2 2 2 1
7 7 7 7 7 7 6 6 6 6 6 5 5 5 5 5 5 5 4 4 4 4 4 4 4 4 3 3 3 3 3 3 2 2 2 2 2 2 2 1 1 1 1 1
7 6 6 6 6 6 6 6 5 5 5 5 5 5 4 4 4 4 4 4 4 4 3 3 3 3 3 3 2 2 2 2 2 2 2 1 1 1 1 1 1 1 1 1
6 6 6 5 5 5 5 5 5 4 4 4 4 4 4 4 4 3 3 3 3 3 3 3 2 2 2 2 2 1 1 1 1 1 1 1 1 1 0 0 0 0 0 0
Wind_Speed
10 10 8 9 10 10 11 10 8 7 5 3 1 2 3 2 2 2 2 2 3 3 3 3 3 2 2 2 2 2 3 3 3 3 3 2 2 3 2 2 3 2 2 2
11 10 10 11 11 12 12 10 10 8 7 3 1 2 1 1 1 1 1 0 1 2 2 2 2 2 2 2 2 2 3 3 2 2 1 2 2 2 2 2 2 2 2 2
9 9 9 11 9 10 9 8 8 8 4 1 0 1 2 1 1 1 1 0 0 2 2 2 2 2 2 2 1 1 2 2 2 2 2 2 2 1 1 2 2 2 2 2
7 8 9 3 1 3 5 6 5 3 0 1 1 2 1 2 1 0 0 0 1 1 2 1 2 2 1 2 2 2 2 2 2 2 2 1 1 1 2 2 2 2 2 2
6 7 7 4 2 2 3 5 2 2 2 1 0 2 1 1 2 1 1 1 1 1 1 2 2 1 2 2 2 2 2 2 2 2 2 1 2 2 2 2 2 3 2 2
6 7 5 1 3 2 1 3 1 1 0 1 0 2 1 2 3 2 2 2 2 2 1 2 2 2 2 2 2 2 2 1 1 2 2 2 2 2 2 2 2 2 2 2
8 8 4 2 2 0 2 0 2 1 0 1 2 2 2 2 2 2 1 1 1 2 1 0 1 2 2 2 2 1 0 0 1 1 2 2 1 1 1 1 2 2 2 2
5 6 4 3 1 1 1 2 1 1 1 1 2 2 2 2 1 1 1 0 1 1 1 0 0 1 2 2 1 1 1 1 1 1 2 2 2 1 1 1 2 2 2 2
3 2 1 1 1 2 3 3 2 2 2 2 1 2 2 2 2 2 1 1 1 1 2 1 1 1 1 1 1 1 1 1 1 1 1 1 1 1 1 1 2 2 2 2
5 4 3 2 2 2 3 3 3 2 2 1 1 2 2 2 2 2 2 1 1 2 2 2 1 1 1 1 2 2 1 1 1 1 0 0 0 1 1 1 2 2 2 2
7 5 3 2 2 3 3 2 2 1 1 2 2 3 3 3 2 2 2 1 2 2 2 2 2 1 1 1 2 1 2 1 1 0 0 0 1 1 1 1 2 2 2 2
5 4 4 3 2 2 2 2 1 2 2 2 2 3 3 2 1 1 1 1 1 2 2 2 1 1 1 1 2 2 2 2 1 1 1 1 0 1 3 2 3 3 3 2
5 5 3 3 3 3 3 2 2 2 3 3 2 2 2 2 1 1 1 1 2 2 2 1 1 1 1 1 1 2 2 1 1 1 1 1 1 1 2 3 3 4 3 3
3 3 4 3 3 3 3 2 2 2 3 2 2 2 2 2 2 1 2 2 2 1 1 1 1 1 0 1 1 2 2 1 1 1 2 2 2 2 2 2 2 3 3 4
3 3 3 3 2 2 3 2 3 3 2 2 2 2 2 3 2 2 2 2 2 1 1 1 1 1 0 0 1 1 1 1 1 1 2 2 2 2 2 2 2 2 1 1
3 4 3 3 3 3 3 3 3 3 2 2 3 3 3 2 2 1 1 2 2 2 2 1 1 0 0 1 1 1 1 2 2 2 2 2 2 2 2 2 3 2 2 1
5 5 4 4 4 4 3 3 3 3 3 3 3 3 2 2 2 2 2 2 2 2 2 1 1 0 1 1 1 1 1 2 3 2 2 2 2 2 2 2 2 2 2 2
3 4 3 3 3 3 3 3 3 3 3 3 3 3 2 2 3 2 2 2 2 2 1 0 0 1 1 1 1 1 1 1 1 2 2 2 2 2 2 2 2 2 2 1
3 3 2 2 3 2 2 2 3 3 3 3 3 3 2 2 2 2 2 2 2 2 1 1 0 1 1 0 1 1 1 1 2 2 2 2 3 2 2 2 2 2 2 1
2 2 2 2 2 2 2 2 2 2 2 2 2 2 2 2 2 1 2 2 2 1 1 0 1 1 1 1 1 1 1 2 2 2 2 2 3 3 2 2 2 2 2 1
2 2 2 2 2 2 2 2 2 2 2 2 2 2 3 2 2 2 2 2 1 1 1 1 0 0 0 1 1 1 2 2 2 2 2 3 2 2 2 2 2 2 2 1
2 2 2 2 2 2 2 2 2 2 2 2 2 2 2 2 2 2 2 2 1 0 0 0 0 1 1 1 1 1 2 2 2 2 2 2 2 2 2 2 2 2 2 1
2 2 2 2 2 2 2 2 2 2 2 2 2 2 2 2 2 2 2 1 1 0 1 0 1 1 2 1 1 2 2 2 2 2 2 1 1 1 2 2 2 2 1 1
2 2 2 2 2 2 2 2 2 1 1 1 1 2 2 2 1 1 1 1 0 0 0 0 1 2 2 1 1 2 2 1 1 1 1 1 1 1 1 1 1 1 1 1
2 2 2 2 2 2 2 2 2 1 1 1 1 2 2 1 1 1 1 1 0 1 0 1 2 2 1 1 1 2 1 1 1 0 0 0 0 1 1 1 1 1 1 1
1 1 1 2 2 2 1 1 1 1 1 1 1 1 1 1 1 1 0 0 1 0 1 1 1 1 1 1 1 1 1 1 1 0 1 1 0 0 1 1 1 1 1 1
1 1 1 1 1 2 2 2 2 2 1 1 2 1 1 1 1 1 1 1 0 0 1 0 0 0 0 0 1 1 1 1 1 1 1 1 1 1 1 1 1 1 1 1
Wind_Direction
270 272 268 265 266 262 258 260 263 263 263 257 167 125 126 134 135 120 102 108 134 145 153 159 162 165 152 151 157 154 160 185 204 207 190 196 209 216 214 226 233 231 237 228
276 265 260 260 255 261 262 265 259 261 265 272 160 121 135 157 143 122 105 38 158 153 158 168 171 170 161 165 173 164 169 179 184 190 197 206 208 219 222 225 238 235 238 229
274 276 272 259 247 241 247 254 257 260 268 264 278 172 182 166 162 148 167 41 264 181 187 188 184 185 183 169 167 177 178 173 170 186 200 208 214 208 215 233 248 244 249 241
272 274 260 261 260 242 247 252 259 278 321 306 344 324 258 139 140 162 130 90 303 213 183 182 184 172 153 160 174 186 188 183 178 182 182 181 201 215 219 234 240 250 251 238
260 263 265 261 260 223 239 259 247 256 263 265 106 303 270 108 93 34 25 4 334 298 184 191 185 167 158 178 193 195 200 201 186 179 183 196 217 228 239 240 239 232 237 221
254 263 264 255 64 43 302 256 166 165 193 344 329 263 270 72 86 67 35 9 351 330 231 192 177 168 180 207 206 204 203 204 185 187 191 205 220 224 229 234 245 238 232 228
249 258 266 93 101 169 242 258 85 88 64 303 267 296 358 26 42 53 37 5 355 338 327 84 148 168 194 213 213 203 168 223 209 204 204 210 222 234 232 235 247 256 250 245
245 250 244 117 148 205 346 7 1 7 360 355 356 355 356 359 353 359 344 331 333 323 317 359 295 222 215 217 188 127 146 219 234 218 221 214 199 233 240 243 246 253 261 262
253 256 36 257 312 3 342 319 332 358 20 32 327 297 301 297 289 278 275 271 275 275 264 241 224 241 240 209 154 139 149 197 223 214 220 201 193 222 255 257 253 260 260 263
266 251 265 287 310 326 320 327 356 21 8 334 284 284 282 281 274 271 255 247 258 246 218 221 217 208 229 176 151 152 180 197 206 199 213 283 319 246 243 263 270 269 268 269
271 276 291 273 297 291 296 316 332 335 313 299 272 273 275 276 271 265 255 228 236 246 214 203 193 197 193 187 162 192 203 193 190 189 210 279 345 337 313 280 251 259 268 274
260 269 271 278 294 304 303 302 312 315 310 295 276 271 273 270 265 245 244 231 242 242 222 223 206 188 169 173 188 208 207 197 187 187 180 182 180 336 342 303 303 292 262 248
281 290 292 302 322 333 321 323 323 312 293 281 279 276 273 269 257 261 267 259 269 252 235 239 235 206 172 183 215 223 224 200 182 192 206 218 225 229 276 309 309 302 279 257
308 305 295 297 302 316 310 308 304 300 295 288 285 280 275 271 255 249 266 276 267 254 260 258 237 217 189 201 240 244 232 193 195 211 220 230 237 244 240 246 274 291 278 254
284 283 271 277 285 295 303 304 294 284 294 300 297 278 268 263 254 251 262 286 273 255 267 272 267 268 5 271 254 250 228 187 203 225 236 239 239 245 248 253 263 277 277 268
269 268 260 259 256 268 273 275 279 283 287 288 286 285 274 257 253 255 263 262 250 250 259 261 260 253 41 301 271 257 239 220 225 234 247 252 246 252 256 255 262 261 251 238
256 256 258 254 254 255 257 260 265 274 284 285 289 294 290 265 246 240 242 239 246 256 251 245 239 216 232 245 252 250 255 234 225 240 244 246 246 247 254 258 263 266 257 228
268 272 269 267 277 272 268 274 279 282 282 288 290 273 261 250 245 254 263 251 245 256 249 201 90 262 252 221 217 239 253 254 240 243 254 256 252 247 253 257 255 257 266 236
280 282 280 276 279 275 276 280 283 286 293 292 280 273 264 261 265 266 269 264 253 259 257 168 245 264 271 273 309 249 243 251 265 258 247 255 259 254 247 243 245 245 247 234
278 295 300 297 295 286 282 281 286 292 290 276 277 284 289 286 283 281 282 276 259 245 239 125 177 234 259 273 291 267 263 264 260 259 256 243 242 244 239 237 240 243 243 233
290 291 289 292 294 292 286 287 294 293 297 295 282 275 278 284 290 282 272 277 280 34 33 47 279 292 352 343 296 268 260 263 263 262 258 257 249 238 234 234 238 239 242 245
285 289 290 287 285 291 297 293 290 296 300 302 304 301 294 294 296 297 289 283 319 51 349 315 300 24 347 333 280 281 284 284 279 273 268 261 249 241 238 237 239 242 237 237
286 285 284 278 270 275 285 289 290 289 287 285 290 294 294 296 308 301 293 317 38 342 315 354 36 4 341 329 298 291 285 286 287 285 286 283 270 253 244 242 243 242 236 237
293 287 287 288 283 278 275 287 295 298 304 307 305 304 301 298 302 303 309 337 351 128 34 77 346 322 318 310 298 291 285 281 281 287 299 315 314 295 277 269 268 267 250 243
292 294 294 287 281 277 280 288 295 297 303 303 297 301 300 303 296 300 312 331 125 124 1 296 297 294 296 294 288 282 278 272 269 262 300 1 333 311 308 298 283 282 277 264
299 304 303 300 303 302 295 289 283 276 274 284 290 298 305 302 289 276 289 66 76 305 324 323 291 278 280 289 294 304 327 336 334 28 81 91 83 18 353 350 347 329 299 289
283 281 284 290 307 313 309 296 287 286 280 278 289 296 295 311 353 359 29 43 21 334 330 325 297 277 314 339 350 346 2 25 51 68 78 77 70 55 23 344 324 315 316 307
Height
1479 1476 1477 1479 1481 1479 1481 1481 1485 1483 1483 1481 1481 1483 1485 1487 1489 1491 1492 1493 1493 1494 1495 1496 1497 1498 1499 1499 1500 1501 1501 1502 1503 1504 1504 1505 1506 1506 1507 1508 1508 1509 1509 1509
1480 1475 1475 1477 1477 1478 1477 1477 1478 1479 1480 1478 1480 1482 1485 1486 1488 1490 1491 1492 1492 1493 1494 1495 1495 1496 1497 1497 1498 1498 1499 1499 1500 1501 1502 1502 1503 1503 1504 1504 1505 1505 1506 1506
1485 1478 1477 1480 1473 1474 1475 1474 1475 1479 1478 1477 1479 1481 1484 1486 1487 1488 1490 1491 1491 1492 1492 1493 1494 1494 1495 1496 1496 1496 1497 1497 1497 1498 1499 1499 1500 1500 1500 1501 1501 1501 1502 1502
1486 1484 1491 1476 1467 1468 1471 1472 1472 1473 1475 1477 1480 1482 1483 1484 1486 1487 1488 1489 1489 1490 1490 1491 1492 1492 1493 1493 1494 1494 1494 1495 1495 1495 1496 1496 1496 1496 1497 1497 1498 1498 1498 1499
1485 1487 1481 1473 1468 1468 1472 1474 1472 1474 1476 1478 1480 1481 1482 1483 1484 1485 1486 1487 1487 1488 1488 1488 1489 1490 1490 1491 1491 1491 1492 1492 1492 1492 1492 1493 1493 1493 1494 1494 1494 1495 1495 1495
1484 1488 1486 1475 1469 1469 1473 1477 1473 1474 1476 1478 1479 1483 1482 1482 1483 1484 1484 1485 1485 1486 1486 1486 1486 1487 1488 1488 1488 1488 1489 1489 1489 1490 1490 1490 1490 1491 1491 1491 1491 1491 1491 1491
1483 1484 1478 1471 1471 1471 1482 1480 1474 1474 1476 1478 1479 1481 1482 1481 1482 1482 1482 1483 1483 1483 1483 1483 1484 1484 1485 1485 1485 1485 1486 1486 1487 1487 1487 1487 1487 1488 1488 1488 1488 1488 1488 1488
1480 1483 1481 1471 1471 1474 1475 1473 1473 1474 1476 1477 1479 1479 1480 1480 1480 1480 1480 1480 1480 1480 1480 1481 1481 1482 1482 1482 1483 1483 1483 1483 1483 1484 1484 1485 1485 1485 1485 1485 1485 1485 1485 1485
1475 1477 1471 1470 1471 1472 1472 1472 1473 1474 1475 1476 1477 1478 1478 1479 1478 1478 1478 1478 1478 1478 1478 1478 1479 1479 1479 1479 1480 1480 1480 1480 1481 1481 1481 1481 1482 1481 1482 1482 1482 1481 1481 1481
1471 1469 1469 1470 1470 1471 1472 1472 1472 1473 1474 1475 1476 1476 1476 1476 1476 1476 1475 1475 1475 1475 1475 1475 1475 1476 1476 1476 1477 1477 1477 1477 1478 1478 1478 1479 1479 1479 1479 1479 1478 1478 1478 1478
1469 1468 1468 1468 1469 1470 1470 1471 1471 1472 1473 1474 1474 1474 1474 1474 1473 1473 1472 1472 1472 1473 1472 1472 1473 1473 1474 1474 1474 1474 1474 1475 1475 1475 1475 1475 1476 1476 1476 1476 1476 1475 1474 1474
1468 1467 1467 1468 1468 1468 1468 1469 1470 1470 1471 1471 1472 1472 1471 1471 1471 1471 1470 1470 1470 1470 1470 1470 1470 1470 1471 1471 1471 1471 1471 1471 1472 1472 1472 1472 1472 1472 1472 1472 1472 1472 1471 1471
1464 1465 1465 1466 1466 1467 1467 1468 1468 1468 1469 1469 1469 1469 1469 1469 1469 1469 1468 1468 1467 1467 1467 1467 1467 1468 1468 1468 1468 1468 1468 1468 1469 1469 1469 1469 1468 1468 1467 1468 1468 1468 1467 1467
1462 1463 1463 1464 1464 1465 1465 1466 1466 1466 1466 1466 1466 1466 1466 1466 1466 1466 1466 1466 1465 1465 1465 1465 1465 1465 1465 1465 1465 1466 1465 1465 1466 1465 1465 1465 1465 1465 1464 1464 1463 1462 1463 1462
1461 1461 1462 1462 1462 1463 1463 1463 1463 1463 1464 1464 1464 1464 1463 1463 1463 1463 1464 1463 1463 1462 1462 1462 1462 1461 1461 1462 1462 1462 1462 1462 1462 1462 1462 1462 1462 1461 1461 1460 1459 1459 1458 1457
1458 1459 1459 1460 1460 1460 1461 1461 1461 1461 1461 1461 1461 1461 1461 1460 1461 1461 1461 1461 1460 1459 1459 1459 1459 1459 1458 1459 1458 1458 1458 1459 1459 1459 1459 1458 1458 1458 1457 1456 1456 1455 1454 1453
1456 1456 1457 1457 1458 1458 1458 1458 1459 1459 1458 1458 1458 1458 1458 1458 1458 1458 1457 1457 1457 1457 1456 1456 1456 1456 1455 1455 1455 1455 1455 1455 1456 1455 1455 1455 1454 1454 1453 1453 1452 1451 1451 1450
1453 1454 1454 1455 1455 1455 1455 1456 1456 1456 1456 1456 1455 1455 1455 1454 1454 1454 1454 1454 1454 1454 1453 1453 1453 1452 1452 1452 1452 1452 1452 1452 1452 1451 1451 1451 1450 1450 1449 1449 1448 1448 1447 1447
1450 1451 1451 1452 1452 1452 1453 1453 1453 1453 1453 1453 1452 1452 1452 1452 1452 1452 1451 1451 1451 1450 1450 1450 1449 1449 1449 1449 1449 1449 1449 1448 1448 1448 1447 1447 1447 1446 1445 1445 1444 1444 1444 1443
1448 1449 1449 1449 1449 1450 1450 1450 1450 1450 1450 1450 1450 1449 1449 1449 1449 1449 1448 1448 1448 1447 1447 1446 1446 1446 1446 1446 1445 1445 1445 1444 1444 1444 1443 1443 1442 1442 1442 1441 1441 1441 1440 1440
1446 1446 1447 1447 1447 1447 1447 1447 1447 1447 1447 1447 1447 1446 1446 1446 1446 1446 1445 1445 1445 1444 1444 1443 1443 1443 1442 1442 1442 1441 1441 1441 1440 1440 1439 1439 1438 1438 1438 1438 1437 1437 1437 1437
1444 1444 1444 1444 1444 1444 1445 1445 1444 1444 1444 1444 1443 1443 1443 1443 1443 1442 1442 1442 1441 1441 1440 1440 1440 1439 1439 1438 1438 1437 1437 1437 1436 1436 1435 1435 1434 1434 1434 1434 1434 1434 1433 1433
1441 1441 1441 1442 1442 1442 1442 1442 1442 1441 1441 1441 1440 1440 1440 1440 1440 1439 1439 1439 1438 1437 1437 1436 1436 1436 1435 1435 1434 1434 1433 1432 1432 1432 1432 1431 1431 1431 1430 1430 1430 1430 1430 1429
1438 1439 1439 1439 1439 1439 1439 1439 1439 1438 1438 1438 1438 1437 1437 1436 1436 1436 1436 1435 1435 1434 1434 1433 1433 1432 1432 1431 1430 1430 1429 1429 1428 1428 1428 1428 1427 1427 1427 1427 1427 1426 1426 1426
1436 1436 1436 1436 1436 1436 1436 1435 1435 1435 1435 1434 1434 1434 1434 1434 1433 1433 1432 1432 1431 1431 1430 1430 1429 1429 1428 1428 1427 1426 1426 1425 1425 1425 1424 1424 1424 1424 1423 1423 1423 1423 1423 1422
1433 1433 1433 1433 1433 1433 1432 1432 1432 1431 1431 1431 1430 1430 1430 1430 1430 1429 1429 1428 1428 1427 1427 1426 1426 1425 1425 1424 1424 1423 1423 1422 1422 1421 1421 1421 1421 1421 1421 1421 1420 1420 1419 1419
1431 1431 1431 1430 1430 1430 1429 1429 1429 1428 1428 1427 1427 1427 1427 1426 1426 1426 1425 1425 1424 1424 1424 1423 1423 1422 1422 1421 1421 1421 1420 1420 1419 1419 1419 1418 1418 1418 1418 1418 1417 1417 1416 1416